Radiation Dose at Monitoring Post of Fukushima Daini Nuclear Power Station
Date,Time,MP-1(microSv/h),MP-2(microSv/h),MP-3(microSv/h),MP-4(microSv/h),MP-5(microSv/h),MP-6(microSv/h),MP-7(microSv/h),Wind Direction,Wind Velocity(m/s),Rain
2014/03/01,00:00,0.8,0.5,0.8,0.7,0.7,0.3,0.3,north,4.7,No
2014/03/01,00:10,0.8,0.5,0.8,0.7,0.7,0.3,0.3,north,3.3,No
2014/03/01,00:20,0.8,0.5,0.8,0.7,0.7,0.3,0.3,north,3.1,No
2014/03/01,00:30,0.8,0.5,0.8,0.7,0.7,0.3,0.3,north,3.1,No
2014/03/01,00:40,0.8,0.5,0.8,0.7,0.7,0.3,0.3,north,1.7,No
2014/03/01,00:50,0.8,0.5,0.8,0.7,0.7,0.3,0.3,north,0.8,No
2014/03/01,01:00,0.8,0.5,0.8,0.7,0.7,0.3,0.3,-,CALM,No
2014/03/01,01:10,0.8,0.5,0.8,0.7,0.7,0.3,0.3,-,CALM,No
2014/03/01,01:20,0.8,0.5,0.8,0.7,0.7,0.3,0.3,-,CALM,No
2014/03/01,01:30,0.8,0.5,0.8,0.7,0.7,0.3,0.3,-,CALM,No
2014/03/01,01:40,0.8,0.5,0.8,0.7,0.7,0.3,0.3,north-northwest,0.5,No
2014/03/01,01:50,0.8,0.5,0.8,0.7,0.7,0.3,0.3,-,CALM,No
2014/03/01,02:00,0.8,0.5,0.8,0.7,0.7,0.3,0.3,north,0.8,No
2014/03/01,02:10,0.8,0.5,0.8,0.7,0.7,0.3,0.3,-,CALM,No
2014/03/01,02:20,0.8,0.5,0.8,0.7,0.7,0.3,0.3,-,CALM,No
2014/03/01,02:30,0.8,0.5,0.8,0.7,0.7,0.3,0.3,-,CALM,No
2014/03/01,02:40,0.8,0.5,0.8,0.7,0.7,0.3,0.3,-,CALM,No
2014/03/01,02:50,0.8,0.5,0.8,0.7,0.7,0.3,0.3,north,0.6,No
2014/03/01,03:00,0.8,0.5,0.8,0.7,0.7,0.3,0.3,-,CALM,No
2014/03/01,03:10,0.8,0.5,0.8,0.7,0.7,0.3,0.3,north,0.7,No
2014/03/01,03:20,0.8,0.5,0.8,0.7,0.7,0.3,0.3,north,0.6,No
2014/03/01,03:30,0.8,0.5,0.8,0.7,0.7,0.3,0.3,north-northeast,0.6,No
2014/03/01,03:40,0.8,0.5,0.8,0.7,0.7,0.3,0.3,north,0.8,No
2014/03/01,03:50,0.8,0.5,0.8,0.7,0.7,0.3,0.3,north-northeast,0.6,No
2014/03/01,04:00,0.8,0.5,0.8,0.7,0.7,0.3,0.3,north-northeast,1.1,No
2014/03/01,04:10,0.8,0.5,0.8,0.7,0.7,0.3,0.3,north-northeast,1.2,No
2014/03/01,04:20,0.8,0.5,0.8,0.7,0.7,0.3,0.3,north-northeast,1.7,No
2014/03/01,04:30,0.8,0.5,0.8,0.7,0.7,0.3,0.3,north,2.3,No
2014/03/01,04:40,0.8,0.5,0.8,0.7,0.7,0.3,0.3,north,2.8,No
2014/03/01,04:50,0.8,0.5,0.8,0.7,0.7,0.3,0.3,north,0.7,No
2014/03/01,05:00,0.8,0.5,0.8,0.7,0.7,0.3,0.3,north-northwest,0.6,No
2014/03/01,05:10,0.8,0.5,0.8,0.7,0.7,0.3,0.3,north,1.9,No
2014/03/01,05:20,0.8,0.5,0.8,0.7,0.7,0.3,0.3,north,4.1,No
2014/03/01,05:30,0.8,0.5,0.8,0.7,0.7,0.3,0.3,north,3.1,No
2014/03/01,05:40,0.8,0.5,0.8,0.7,0.7,0.3,0.3,north,3.6,No
2014/03/01,05:50,0.8,0.5,0.8,0.7,0.7,0.3,0.3,north,3.1,No
2014/03/01,06:00,0.8,0.5,0.8,0.7,0.7,0.3,0.3,north-northwest,3.6,No
2014/03/01,06:10,0.8,0.5,0.8,0.7,0.7,0.3,0.3,north-northwest,2.6,No
2014/03/01,06:20,0.8,0.5,0.8,0.7,0.7,0.3,0.3,north-northwest,3.1,No
2014/03/01,06:30,0.8,0.5,0.8,0.7,0.7,0.3,0.3,north,3.1,No
2014/03/01,06:40,0.8,0.5,0.8,0.7,0.7,0.3,0.3,north,2.2,No
2014/03/01,06:50,0.8,0.5,0.8,0.7,0.7,0.3,0.3,north,2.0,No
2014/03/01,07:00,0.8,0.5,0.8,0.7,0.7,0.3,0.3,north-northwest,2.9,No
2014/03/01,07:10,0.8,0.5,0.8,0.7,0.7,0.3,0.3,north,2.5,No
2014/03/01,07:20,0.8,0.5,0.8,0.7,0.7,0.3,0.3,north-northwest,3.6,No
2014/03/01,07:30,0.8,0.5,0.8,0.7,0.7,0.3,0.3,north,3.4,No
2014/03/01,07:40,0.8,0.5,0.8,0.7,0.7,0.3,0.3,north-northwest,3.7,No
2014/03/01,07:50,0.8,0.5,0.8,0.7,0.7,0.3,0.3,north-northwest,3.8,No
2014/03/01,08:00,0.8,0.5,0.8,0.7,0.7,0.3,0.3,north-northwest,2.7,No
2014/03/01,08:10,0.8,0.5,0.8,0.7,0.7,0.3,0.3,north,1.2,No
2014/03/01,08:20,0.8,0.5,0.8,0.7,0.7,0.3,0.3,north,3.1,No
2014/03/01,08:30,0.8,0.5,0.8,0.7,0.7,0.3,0.3,north,3.4,No
2014/03/01,08:40,0.8,0.5,0.8,0.7,0.7,0.3,0.3,north,3.4,No
2014/03/01,08:50,0.8,0.5,0.8,0.7,0.7,0.3,0.3,north,4.6,No
2014/03/01,09:00,0.8,0.5,0.8,0.7,0.7,0.3,0.3,north,4.7,No
2014/03/01,09:10,0.8,0.5,0.8,0.7,0.7,0.3,0.3,north,4.1,Yes
2014/03/01,09:20,0.8,0.5,0.8,0.7,0.7,0.3,0.3,north,4.8,Yes
2014/03/01,09:30,0.8,0.5,0.8,0.7,0.7,0.3,0.3,north,4.7,No
2014/03/01,09:40,0.8,0.5,0.8,0.7,0.7,0.3,0.3,north,4.8,No
2014/03/01,09:50,0.8,0.5,0.8,0.7,0.7,0.3,0.3,north,5.3,Yes
2014/03/01,10:00,0.8,0.5,0.8,0.7,0.7,0.3,0.3,north,4.5,No
2014/03/01,10:10,0.8,0.5,0.8,0.7,0.7,0.3,0.3,north,4.5,No
2014/03/01,10:20,0.8,0.5,0.8,0.7,0.7,0.3,0.3,north,5.8,No
2014/03/01,10:30,0.8,0.5,0.8,0.7,0.7,0.3,0.3,north,5.3,No
2014/03/01,10:40,0.8,0.5,0.8,0.7,0.7,0.3,0.3,north,5.4,No
2014/03/01,10:50,0.8,0.5,0.8,0.7,0.7,0.3,0.3,north-northwest,5.3,No
2014/03/01,11:00,0.8,0.5,0.8,0.7,0.7,0.3,0.3,north-northwest,4.9,Yes
2014/03/01,11:10,0.8,0.5,0.8,0.7,0.7,0.3,0.3,north-northwest,4.9,No
2014/03/01,11:20,0.8,0.5,0.8,0.7,0.7,0.3,0.3,north,3.8,No
2014/03/01,11:30,0.8,0.5,0.8,0.7,0.7,0.3,0.3,north,3.6,No
2014/03/01,11:40,0.8,0.5,0.8,0.7,0.7,0.3,0.3,north,3.2,No
2014/03/01,11:50,0.8,0.5,0.8,0.7,0.7,0.3,0.3,north,2.8,No
2014/03/01,12:00,0.8,0.5,0.8,0.7,0.7,0.3,0.3,north,2.6,No
2014/03/01,12:10,0.8,0.5,0.8,0.7,0.7,0.3,0.3,north-northeast,2.3,Yes
2014/03/01,12:20,0.8,0.5,0.8,0.7,0.7,0.3,0.3,north,2.6,Yes
2014/03/01,12:30,0.8,0.5,0.8,0.7,0.7,0.3,0.3,north,4.0,No
2014/03/01,12:40,0.8,0.5,0.8,0.7,0.7,0.3,0.3,north,5.2,Yes
2014/03/01,12:50,0.8,0.5,0.8,0.7,0.7,0.3,0.3,north,4.7,No
2014/03/01,13:00,0.8,0.5,0.8,0.7,0.7,0.3,0.3,north,5.0,No
2014/03/01,13:10,0.8,0.5,0.8,0.7,0.7,0.3,0.3,north,4.1,No
2014/03/01,13:20,0.8,0.5,0.8,0.7,0.7,0.3,0.3,north,3.6,No
2014/03/01,13:30,0.8,0.5,0.8,0.7,0.7,0.3,0.3,north-northwest,3.9,No
2014/03/01,13:40,0.8,0.5,0.8,0.7,0.7,0.3,0.3,north,3.2,No
2014/03/01,13:50,0.8,0.5,0.8,0.7,0.7,0.3,0.3,north,3.7,No
2014/03/01,14:00,0.8,0.5,0.8,0.7,0.7,0.3,0.3,north,4.2,No
2014/03/01,14:10,0.8,0.5,0.8,0.7,0.7,0.3,0.3,north,4.1,No
2014/03/01,14:20,0.8,0.5,0.8,0.7,0.7,0.3,0.3,north-northeast,3.6,No
2014/03/01,14:30,0.8,0.5,0.8,0.7,0.7,0.3,0.3,north,4.1,Yes
2014/03/01,14:40,0.8,0.5,0.8,0.7,0.7,0.3,0.3,north,4.6,Yes
2014/03/01,14:50,0.8,0.5,0.8,0.7,0.7,0.3,0.3,north,5.0,Yes
2014/03/01,15:00,0.8,0.5,0.8,0.7,0.7,0.3,0.3,north,5.6,Yes
2014/03/01,15:10,0.8,0.5,0.8,0.7,0.7,0.3,0.3,north,5.1,Yes
2014/03/01,15:20,0.8,0.5,0.8,0.7,0.7,0.3,0.3,north-northeast,6.8,Yes
2014/03/01,15:30,0.8,0.5,0.8,0.7,0.7,0.3,0.3,north-northeast,7.0,Yes
2014/03/01,15:40,0.8,0.5,0.8,0.7,0.7,0.3,0.3,north,6.5,Yes
2014/03/01,15:50,0.8,0.5,0.8,0.7,0.7,0.3,0.3,north,5.4,Yes
2014/03/01,16:00,0.8,0.5,0.8,0.7,0.7,0.3,0.3,north,4.7,Yes
2014/03/01,16:10,0.8,0.5,0.8,0.7,0.7,0.3,0.3,north,4.1,Yes
2014/03/01,16:20,0.8,0.5,0.8,0.7,0.7,0.3,0.3,north,4.5,Yes
2014/03/01,16:30,0.8,0.5,0.8,0.7,0.7,0.3,0.3,north,4.2,Yes
2014/03/01,16:40,0.8,0.5,0.8,0.7,0.7,0.3,0.3,north,4.1,Yes
2014/03/01,16:50,0.8,0.5,0.8,0.7,0.7,0.3,0.3,north,3.7,Yes
2014/03/01,17:00,0.8,0.5,0.8,0.7,0.7,0.3,0.3,north,3.2,Yes
2014/03/01,17:10,0.8,0.5,0.8,0.7,0.7,0.3,0.3,northwest,2.3,Yes
2014/03/01,17:20,0.8,0.5,0.8,0.7,0.7,0.3,0.3,north-northwest,4.0,Yes
2014/03/01,17:30,0.8,0.5,0.8,0.7,0.7,0.3,0.3,northwest,3.9,Yes
2014/03/01,17:40,0.8,0.5,0.8,0.7,0.7,0.3,0.3,north-northwest,3.8,Yes
2014/03/01,17:50,0.8,0.5,0.8,0.7,0.7,0.3,0.3,north-northwest,3.1,Yes
2014/03/01,18:00,0.8,0.5,0.8,0.7,0.7,0.3,0.3,northwest,2.1,Yes
2014/03/01,18:10,0.8,0.5,0.8,0.7,0.7,0.3,0.3,north-northwest,3.0,Yes
2014/03/01,18:20,0.8,0.5,0.8,0.7,0.7,0.3,0.3,north-northwest,2.6,No
2014/03/01,18:30,0.8,0.5,0.8,0.7,0.7,0.3,0.3,north-northwest,3.2,No
2014/03/01,18:40,0.8,0.5,0.8,0.7,0.7,0.3,0.3,north-northwest,3.9,No
2014/03/01,18:50,0.8,0.5,0.8,0.7,0.7,0.3,0.3,north-northwest,2.8,No
2014/03/01,19:00,0.8,0.5,0.8,0.7,0.7,0.3,0.3,north-northwest,2.3,No
2014/03/01,19:10,0.8,0.5,0.8,0.7,0.7,0.3,0.3,north-northwest,3.0,No
2014/03/01,19:20,0.8,0.5,0.8,0.7,0.7,0.3,0.3,north-northwest,3.4,No
2014/03/01,19:30,0.8,0.5,0.8,0.7,0.7,0.3,0.3,north-northwest,4.7,No
2014/03/01,19:40,0.8,0.5,0.8,0.7,0.7,0.3,0.3,north-northwest,3.4,No
2014/03/01,19:50,0.8,0.5,0.8,0.7,0.7,0.3,0.3,northwest,2.4,No
2014/03/01,20:00,0.8,0.5,0.8,0.7,0.7,0.3,0.3,north-northwest,3.0,No
2014/03/01,20:10,0.8,0.5,0.8,0.7,0.7,0.3,0.3,north-northwest,3.1,No
2014/03/01,20:20,0.8,0.5,0.8,0.7,0.7,0.3,0.3,west-northwest,3.0,No
2014/03/01,20:30,0.8,0.5,0.8,0.7,0.7,0.3,0.3,northwest,3.6,No
2014/03/01,20:40,0.8,0.5,0.8,0.7,0.7,0.3,0.3,north-northwest,6.6,No
2014/03/01,20:50,0.8,0.5,0.8,0.7,0.7,0.3,0.3,north-northwest,6.2,No
2014/03/01,21:00,0.8,0.5,0.8,0.7,0.7,0.3,0.3,north-northwest,5.8,No
2014/03/01,21:10,0.8,0.5,0.8,0.7,0.7,0.3,0.3,north-northwest,5.7,No
2014/03/01,21:20,0.8,0.5,0.8,0.7,0.7,0.3,0.3,north-northwest,5.4,No
2014/03/01,21:30,0.8,0.5,0.8,0.7,0.7,0.3,0.3,north-northwest,5.3,No
2014/03/01,21:40,0.8,0.5,0.8,0.7,0.7,0.3,0.3,north-northwest,5.7,No
2014/03/01,21:50,0.8,0.5,0.8,0.7,0.7,0.3,0.3,north-northwest,5.6,No
2014/03/01,22:00,0.8,0.5,0.8,0.7,0.7,0.3,0.3,north-northwest,5.0,No
2014/03/01,22:10,0.8,0.5,0.8,0.7,0.7,0.3,0.3,north-northwest,4.8,No
2014/03/01,22:20,0.8,0.5,0.8,0.7,0.7,0.3,0.3,north-northwest,4.5,No
2014/03/01,22:30,0.8,0.5,0.8,0.7,0.7,0.3,0.3,north-northwest,4.1,No
2014/03/01,22:40,0.8,0.5,0.8,0.7,0.7,0.3,0.3,north-northwest,4.4,No
2014/03/01,22:50,0.8,0.5,0.8,0.7,0.7,0.3,0.3,north-northwest,6.1,No
2014/03/01,23:00,0.8,0.5,0.8,0.7,0.7,0.3,0.3,north-northwest,5.5,No
2014/03/01,23:10,0.8,0.5,0.8,0.7,0.7,0.3,0.3,north-northwest,4.9,No
2014/03/01,23:20,0.8,0.5,0.8,0.7,0.7,0.3,0.3,north-northwest,5.0,No
2014/03/01,23:30,0.8,0.5,0.8,0.7,0.7,0.3,0.3,north-northwest,4.7,No
2014/03/01,23:40,0.8,0.5,0.8,0.7,0.7,0.3,0.3,north-northwest,5.4,No
2014/03/01,23:50,0.8,0.5,0.8,0.7,0.7,0.3,0.3,north,5.8,No
